Погода в Багдарине

Поиск расширенной информации на нашем сайте:

Полезная информация:

Новости сайта



02.01.2020
Опубликован Долгосрочный прогноз погоды по городам России и ближнего зарубежья на январь 2020 года.
Карты: Прогноз на январь и февраль 2020 года, Сравнение прогнозируемой аномалии приземной температуры воздуха на январь 2020 года по разным моделям.




Погода в Багдарине - сегодня

Время (UTC), дата Ветер
(°,м/с) 
Видим.   Явления Облачность Т
(°С)
Тd
(°С)
f(%) Тe
(°С)
Pmin
(гПа)
dP
(гПа)
Po
(мм)
O2
(г/м3)
Тmin Tmax R s Состояние
почвы
21 23.11.20 тихо ()   н/о    ясно 
-15.8 -18 83 -16  1027.8  1.7  685  294           
00 24.11.20 310 (СЗ) н/о    ясно 
-10.9 -16.9 61 -13  1027.5  1.7  686  289  -15.8      равномерный
сухой снег
100% 
03 24.11.20 320 (СЗ) 20000 м    ясно 
-6.2 -17.4 41 -9  1026.7  1.1  687  284           
06 24.11.20 320 (СЗ) 20000 м    3/3 1000 м 
[Sc diur, vesp]
-5.9 -19.7 33 -10  1027.1  0.5  687  284           
09 24.11.20 320 (СЗ) 2{10}  н/о    ясно 
-9.2 -22 35 -11  1030.1  1.4  688  288           
12 24.11.20 310 (СЗ) н/о    ясно 
-14 -21.1 55 -16  1033.9  1.4  689  294    -5.3       
15 24.11.20 330 (СЗ) н/о    ясно 
-16.6 -21.8 64 -20  1036.9  1.6  691  298           
18 24.11.20 140 (ЮВ) н/о    ясно 
-17.9 -22.8 65 -18  1038.6  691  300           
21 24.11.20 140 (ЮВ) н/о    ясно 
-21.5 -25.1 73 -22  1041.8  1.2  692  304           
00 25.11.20 тихо ()   н/о    ясно 
-24.6 -27.4 78 -25  1044.9  1.4  693  309  -24.9      равномерный
сухой снег
100% 
03 25.11.20 140 (ЮВ) 20000 м    ясно 
-16.6 -22.3 61 -19  1041.4  0.4  694  299  -24.9         
06 25.11.20 330 (СЗ) 20000 м    ясно 
-8.8 -23.1 30 -9  1037.5  -0.3  693  290           
09 25.11.20 140 (ЮВ) н/о    ясно 
-16.9 -23 59 -17  1041.6  0.3  694  299           
12 25.11.20 тихо ()   н/о    ясно 
-22.1 -25.7 73 -22  1044.7  0.5  694  306    -8.8       
15 25.11.20 300 (СЗ) н/о    3/0 верхняя 
[Ci fib]
-24.9 -28 75 -25  1046.5  0.3  694  309           
18 25.11.20 тихо ()   н/о    ясно 
-26.4 -29.6 74 -26  1047.3  0.1  694  311           
21 25.11.20 тихо ()   н/о    ясно 
-27.6 -31 73 -28  1047.5  -0.4  694  313           
00 26.11.20 тихо ()   н/о    ясно 
-28.3 -31.8 72 -28  1048.6  0.6  694  314  -28.4      равномерный
сухой снег
100% 
03 26.11.20 130 (ЮВ) 20000 м    ясно 
-20.3 -25.1 65 -21  1044.8  0.3  695  304           
06 26.11.20 150 (ЮВ) 20000 м    3/3 1000 м 
[Sc]
-9.7 -19.9 43 -10  1038.6  -1.1  694  291           
09 26.11.20 тихо ()   н/о    ясно 
-18.2 -22.8 67 -18  1043.1  0.5  694  301           
12 26.11.20 тихо ()   н/о    ясно 
-22.8 -25.8 76 -23  1046.5  695  307    -8.6       
15 26.11.20 тихо ()   н/о    ясно 
-25.1 -28.2 75 -25  1047.6  0.1  695  310           
18 26.11.20 тихо ()   н/о    ясно 
-26.9 -30.2 73 -27  1048.7  0.2  695  312           
21 26.11.20 тихо ()   н/о    ясно 
-28 -31.4 73 -28  1049  -0.3  695  314           
Время (UTC), дата Ветер
(°,м/с) 
Видим.   Явления Облачность Т
(°С)
Тd
(°С)
f(%) Тe
(°С)
Pmin
(гПа)
dP
(гПа)
Po
(мм)
O2
(г/м3)
Тmin Tmax R s Состояние
почвы

Для получения пояснительной информации подведите курсор к названию столбца.

ПОГОДА в Багдарине - архив

Всё, что Вы хотите узнать о погоде в Багдарине - удобно и подробно!

Выберите нужную дату (начиная с 1 января 2019* года) и нажмите кнопку "Найти".
Будут отображены архивные сводки погоды по пункту Багдарин, начиная с указанной даты.


Отображать данные в формате CSV (для использования в таблицах Excel)


Внимание! Наш архив погоды предназначен исключительно для личного некоммерческого использования в познавательных целях. Если Вам необходимы официальные справки о состоянии погоды (для производственных, юридических, коммерческих и т.п. целей), обращайтесь в органы Росгидромета.

*Примечание: данная дата относится к архиву по метеостанциям СССР (Россия, СНГ, Балтия).
Архив по метеостанциям Зарубежной Европы и Азии (кроме Китая) хранится 10 дней, по другим регионам земного шара (Китай, Африка, Америка, Австралия, Океания) - 1 день.

Багдарин - район местоположения метеостанции


Название, широта, долгота, высота метеостанции:
Багдарин 54.5°ш. 113.6°д. 903 м над ур. моря [Российская Федерация]

Дополнительная информация

В oтличие oт бoльшинства пoгoдных сайтoв мы публикуем пoдрoбную метеoинфoрмацию в детальнoм прoфессиoнальнoм фoрмате.

Характеристики температуры и влажнoсти вoздуха измеряются на высoте 2 м в тени вдали oт зданий и деревьев.
Скoрoсть ветра измеряется на высoте 10 м (на урoвне рoста челoвека скoрoсть ветра ниже в 1.5-2 раза). Если метеoстанция нахoдится в гoрoде или в лесу, тo скoрoсть ветра занижена на 2-4 м/с пo сравнению с oткрытым местoм. Скoрoсть ветра над акватoриями крупных рек и oзёр, а также на вершинах хoлмoв на 2-5 м/с выше, чем в oбычных услoвиях.
Атмoсфернoе давление в разных тoчках местнoсти мoжет значительнo oтличаться oт давления на метеoстанции, в зависимoсти oт услoвий рельефа (при пoдъёме на 10 м давление пoнижается примернo на 1 мм рт.ст.).